Showing default

AETHER-11, 67382

Orbit data source: Space-Track

AETHER-11, 67382 is a payload satellite owned by Kepler Comms (CA) in SSO that was launched on Sun, 11 Jan 2026 UTC via an FALCON 9 launch vehicle from the Air Force Western Test Range (AFWTR). Payload-class satellites include a variety of spacecraft equipped with specific instruments for various scientific and technological missions. These include communications satellites like Starlink; space stations such as the ISS; scientific satellites like the Hubble; Earth observation satellites from companies like Planet Labs, Umbra, and HawkEye 360; GPS; miniature CubeSats for education and research; and military/defense satellites.

Loading next visibility...
Identifier
67382, 2026-004V
Orbit
SSO
Country
Flag of CACA
Related business
Manufacturer
Kepler Comms
Mission
Operational Commercial Communications
Bus & Motor
KEPLER GEN2B, Unknown motor
Mass
300 kg wet, 300 kg dry
Launch date (UTC)
2026-01-11 (8 months ago)
Launch vehicle
FALCON 9
Launch site
Air Force Western Test Range (AFWTR)
Object type
Payload
Rocket body
Debris
Shape & HBR
Box + 2 Pan, 7.6 m
Radar Cross Section
4.448 m², Large (>1 m²)

Expand to show TLE details & history
Last TLE update: 13 hours ago

TLE from 13 hours ago
0 AETHER-11
1 67382U 26004V   26264.24028750  .00000405  00000-0  52582-4 0  9991
2 67382  97.8107 261.1565 0000745 166.3505 193.7731 14.85910302 37552
Epoch: 2026-09-21T05:46Z
TLE epoch observation values (Epoch: 2026-09-21T05:46:00.840Z)
Latitude
-0.00002°
Longitude
174.53005°
Altitude
614.268 km
Speed
7.552 km/s
True Right ascension
17h 24m 37s
True Declination
0° 00' 00"
Sunlit
Object was in daylight at epoch
Visualization orbit readout
Latitude
Unknown
Longitude
Unknown
Altitude
Unknown
Speed
Unknown
Apparent Right ascension
Unknown
Apparent Declination
Unknown
Sunlit
N/A
Visualization observer readout
Local Sidereal Time
11:32:24
Azimuth
Unknown
Elevation
Unknown
Doppler factor
Unknown
Orbital elements
Apogee altitude
608.279 km
Perigee altitude
607.239 km
Semi-major axis
6,985.896 km
Eccentricity
0.00007
Inclination
97.8107°
RAAN
261.1565°
Arg. of periapsis
166.3505°
True anomaly
193.77107°
Mean anomaly
193.7731°
Eccentric anomaly
193.77208°
Mean motion
3.71715 °/min
Orbital period
96.85 mins
BSTAR
0.000052582
Loading maneuver chart data...
Computing Atmospheric mass density...
Loading historical data...
Loading historical data...
Loading historical data...
Loading historical data...
Loading historical data...
Loading historical data...
Loading historical data...

Documentation

Showing up to 5 results
|